QPF
0.00 0.00 0.00 0.00 0.00 0.00 0.00 0.00 0.00 0.00 0.00 0.01 0.02 0.02 0.04 0.02 0.01 0.00 0.00 0.00 0.00 0.00
0.00 0.00 0.00 0.00 0.00 0.00 0.00 0.00 0.00 0.00 0.00 0.00 0.01 0.01 0.03 0.01 0.02 0.02 0.01 0.00 0.00 0.00
0.00 0.00 0.00 0.00 0.00 0.00 0.00 0.00 0.00 0.00 0.00 0.00 0.00 0.00 0.01 0.00 0.01 0.01 0.00 0.00 0.00 0.00
0.00 0.00 0.00 0.00 0.00 0.00 0.00 0.00 0.00 0.00 0.00 0.00 0.00 0.00 0.00 0.00 0.01 0.01 0.00 0.00 0.00 0.00
0.00 0.00 0.00 0.00 0.00 0.00 0.00 0.00 0.00 0.00 0.00 0.00 0.00 0.00 0.00 0.00 0.00 0.00 0.00 0.00 0.00 0.00
0.00 0.00 0.00 0.00 0.00 0.00 0.00 0.00 0.00 0.00 0.00 0.00 0.00 0.00 0.00 0.00 0.00 0.00 0.00 0.00 0.00 0.00
0.00 0.00 0.00 0.00 0.00 0.00 0.00 0.00 0.00 0.00 0.00 0.00 0.00 0.00 0.00 0.00 0.00 0.00 0.00 0.00 0.00 0.00
0.00 0.00 0.00 0.00 0.00 0.00 0.00 0.00 0.00 0.00 0.00 0.00 0.00 0.00 0.00 0.00 0.00 0.00 0.00 0.00 0.00 0.00
0.00 0.00 0.00 0.00 0.00 0.00 0.00 0.00 0.00 0.00 0.00 0.00 0.00 0.00 0.00 0.00 0.00 0.00 0.00 0.00 0.00 0.00
0.00 0.00 0.00 0.00 0.00 0.00 0.00 0.00 0.00 0.00 0.00 0.00 0.00 0.00 0.00 0.00 0.00 0.00 0.00 0.00 0.00 0.00
0.00 0.00 0.00 0.00 0.00 0.00 0.00 0.00 0.00 0.00 0.00 0.00 0.00 0.00 0.00 0.00 0.00 0.00 0.00 0.00 0.00 0.00
0.00 0.00 0.00 0.00 0.00 0.00 0.00 0.00 0.00 0.00 0.00 0.00 0.00 0.00 0.00 0.00 0.00 0.00 0.00 0.00 0.00 0.00
0.00 0.00 0.00 0.00 0.00 0.00 0.00 0.00 0.00 0.00 0.00 0.00 0.00 0.00 0.00 0.00 0.00 0.00 0.00 0.00 0.00 0.00
0.00 0.00 0.00 0.00 0.00 0.00 0.00 0.00 0.00 0.00 0.00 0.00 0.00 0.00 0.00 0.00 0.00 0.00 0.00 0.00 0.00 0.00
MSLP
1014.99 1015.29 1015.61 1015.75 1015.66 1015.90 1016.03 1016.19 1016.51 1017.06 1017.69 1018.19 1018.61 1018.90 1019.23 1019.62 1019.71 1019.58 1019.81 1019.97 1019.99 1020.11
1014.60 1014.77 1015.05 1015.34 1015.49 1015.75 1015.79 1015.99 1016.20 1016.75 1017.37 1017.65 1018.21 1018.57 1018.85 1019.31 1019.41 1019.54 1019.74 1019.91 1020.00 1020.07
1013.93 1014.37 1014.60 1014.95 1015.33 1015.48 1015.57 1015.66 1016.37 1016.63 1016.98 1017.34 1017.71 1018.03 1018.55 1018.89 1019.13 1019.39 1019.67 1019.65 1019.77 1019.87
1012.94 1013.58 1014.23 1014.49 1014.86 1015.08 1015.35 1015.55 1015.81 1016.30 1016.67 1017.09 1017.50 1017.85 1018.27 1018.57 1018.75 1019.01 1019.11 1019.26 1019.32 1019.51
1012.07 1012.83 1013.34 1013.89 1014.05 1014.57 1014.84 1015.21 1015.45 1015.89 1016.35 1016.77 1017.15 1017.57 1017.91 1018.27 1018.37 1018.59 1018.79 1018.90 1019.08 1019.11
1011.13 1011.70 1012.23 1012.97 1013.47 1013.85 1014.35 1014.68 1015.13 1015.49 1015.94 1016.35 1016.73 1017.10 1017.43 1017.79 1018.10 1018.29 1018.39 1018.57 1018.64 1018.75
1009.94 1010.51 1011.22 1011.95 1012.81 1013.17 1013.59 1014.12 1014.57 1015.00 1015.38 1015.83 1016.25 1016.56 1016.87 1017.20 1017.59 1017.80 1017.95 1017.95 1018.13 1018.24
1008.63 1009.56 1010.42 1011.09 1011.73 1012.48 1012.95 1013.36 1013.89 1014.43 1014.78 1015.16 1015.57 1015.93 1016.27 1016.58 1016.86 1017.17 1017.38 1017.55 1017.66 1017.76
1007.89 1008.85 1009.54 1010.31 1010.89 1011.60 1012.09 1012.57 1013.14 1013.59 1014.04 1014.35 1014.71 1015.03 1015.41 1015.84 1016.18 1016.37 1016.73 1016.95 1017.07 1017.17
1006.77 1007.86 1008.67 1009.34 1010.18 1010.64 1011.23 1011.73 1012.17 1012.69 1013.17 1013.57 1013.85 1014.20 1014.56 1015.00 1015.45 1015.73 1015.89 1016.16 1016.45 1016.65
1005.64 1006.63 1007.73 1008.63 1009.17 1009.83 1010.39 1010.91 1011.29 1011.75 1012.23 1012.71 1013.12 1013.57 1013.98 1014.29 1014.78 1015.00 1015.11 1015.31 1015.63 1015.87
1004.32 1005.45 1006.57 1007.43 1008.10 1008.81 1009.58 1010.13 1010.49 1010.84 1011.27 1011.74 1012.28 1012.79 1013.35 1013.93 1014.37 1014.41 1014.48 1014.61 1014.86 1015.09
1003.41 1004.43 1005.27 1006.07 1007.00 1007.91 1008.56 1008.89 1009.45 1009.81 1010.19 1010.71 1011.26 1011.75 1012.30 1013.01 1013.48 1013.67 1013.79 1013.95 1014.10 1014.34
1002.56 1003.37 1004.41 1005.58 1006.38 1007.05 1007.76 1008.34 1008.78 1009.09 1009.43 1009.87 1010.32 1010.72 1011.24 1011.96 1012.56 1012.61 1012.86 1013.03 1013.11 1013.40
Thickness
5803 5804 5805 5807 5810 5810 5810 5811 5810 5807 5803 5799 5796 5795 5794 5792 5790 5792 5792 5791 5792 5790
5805 5807 5807 5809 5812 5812 5814 5813 5814 5810 5808 5805 5801 5798 5797 5795 5794 5794 5794 5793 5794 5793
5806 5808 5810 5810 5810 5812 5815 5816 5812 5812 5812 5809 5806 5803 5801 5800 5799 5796 5795 5797 5796 5796
5812 5812 5810 5812 5812 5814 5816 5817 5816 5815 5814 5812 5809 5807 5804 5802 5803 5800 5799 5800 5800 5798
5814 5813 5814 5814 5817 5816 5817 5817 5818 5816 5814 5813 5811 5809 5806 5804 5805 5802 5800 5801 5800 5801
5817 5818 5819 5819 5819 5820 5818 5819 5818 5817 5815 5814 5813 5811 5810 5807 5805 5804 5803 5803 5803 5803
5820 5824 5824 5823 5820 5822 5822 5820 5819 5818 5817 5816 5815 5814 5813 5810 5807 5806 5806 5807 5807 5807
5826 5825 5824 5825 5824 5823 5822 5822 5821 5819 5819 5819 5819 5818 5815 5813 5810 5808 5806 5807 5808 5810
5825 5822 5824 5824 5825 5823 5824 5824 5823 5822 5821 5821 5823 5823 5820 5818 5814 5812 5809 5807 5809 5811
5829 5825 5824 5825 5823 5825 5825 5825 5825 5824 5824 5824 5826 5825 5823 5820 5819 5815 5814 5812 5811 5811
5833 5830 5827 5824 5826 5825 5825 5824 5825 5825 5825 5825 5827 5825 5823 5821 5820 5819 5818 5817 5816 5815
5841 5834 5830 5827 5827 5826 5824 5823 5826 5827 5827 5826 5826 5824 5823 5818 5818 5818 5818 5819 5819 5819
5845 5839 5834 5832 5829 5826 5825 5826 5826 5827 5829 5829 5827 5826 5824 5821 5821 5817 5817 5818 5820 5820
5849 5844 5838 5830 5827 5826 5823 5822 5822 5824 5826 5828 5829 5829 5825 5821 5822 5821 5818 5818 5820 5823